[[{"header":{"parameterUnit":"m.s-1","parameterCategory":1,"la1":30.2992,"la2":30.254,"lo1":-89.0895,"lo2":-89.0443,"dy":0.0025,"dx":0.0025,"nx":19,"ny":19,"refTime":"2026-03-13T21:00:00:Z","depth":0,"parameterNumber":2,"parameterNumberName":"U-component_of_WINDS"},"data":[0,0,0,-0.3905,-0.3906,-0.3962,-0.3962,-0.4025,-0.4025,0,0,0,0,0,0,0,0,0,0,0,-0.3881,-0.3882,-0.3905,-0.3906,-0.3962,-0.3962,-0.4025,-0.4025,0,0,0,0,0,0,0,0,0,0,0,-0.3881,-0.3881,-0.3882,-0.3906,-0.3962,-0.3962,-0.4025,-0.3986,0,0,0,0,0,0,0,0,0,0,-0.3933,-0.3904,-0.3881,-0.3882,-0.3906,-0.3962,-0.3962,-0.3984,-0.3988,-0.3995,0,-0.3998,0,-0.4012,-0.4029,-0.4029,0,0,0,-0.3912,-0.3901,-0.3922,-0.3882,-0.3907,-0.3962,-0.3938,-0.3987,-0.3991,-0.4,-0.3999,-0.4001,-0.4013,-0.4029,-0.4029,-0.4045,-0.4045,0,0,-0.3909,-0.3888,-0.3919,-0.3925,-0.3914,-0.3936,-0.394,-0.399,-0.3987,-0.3999,-0.4003,-0.4014,-0.4029,-0.403,-0.4045,-0.4045,0,0,0,-0.3896,-0.3886,-0.3906,-0.3922,-0.3932,-0.3938,-0.3942,-0.3985,-0.3993,-0.4004,-0.4015,-0.403,-0.403,-0.4045,-0.4045,-0.4014,0,0,0,-0.3894,-0.3878,-0.3904,-0.3892,-0.3931,-0.3959,-0.3936,-0.399,-0.3996,-0.4015,-0.403,-0.4031,-0.4046,-0.4045,-0.4016,-0.4004,0,0,0,-0.388,-0.3877,-0.3882,-0.3891,-0.3914,-0.3959,-0.397,-0.3992,-0.4003,-0.4029,-0.4031,-0.4046,-0.4045,-0.4017,-0.4006,-0.4001,0,0,0,-0.386,-0.3856,-0.3881,-0.3881,-0.3913,-0.3939,-0.397,-0.399,-0.4009,-0.403,-0.4045,-0.4045,-0.4017,-0.4007,-0.4002,-0.3994,-0.3988,0,0,-0.3843,-0.3853,-0.3855,-0.3879,-0.3894,-0.3932,-0.3944,-0.3981,-0.4004,-0.403,-0.4031,-0.4015,-0.4006,-0.4002,-0.3964,-0.3959,0,0,0,-0.3842,-0.3843,-0.3852,-0.3868,-0.3895,-0.3918,-0.3956,-0.397,-0.3993,-0.4012,-0.4013,-0.4008,-0.4007,-0.4004,-0.4,-0.4,-0.4043,-0.4043,-0.4043,-0.3791,-0.3817,-0.3822,-0.3855,-0.387,-0.3909,-0.3924,-0.395,-0.3974,-0.3974,-0.3982,-0.3955,-0.3951,-0.3948,-0.3947,-0.398,-0.3979,-0.3979,-0.3979,-0.3769,-0.3774,-0.3805,-0.382,-0.3849,-0.3862,-0.3899,-0.3916,-0.3933,-0.3952,-0.3952,-0.3969,-0.3942,-0.3943,-0.3977,-0.3978,-0.3978,-0.3978,-0.3978,-0.3738,-0.3745,-0.3761,-0.3786,-0.3803,-0.3838,-0.3852,-0.3879,-0.3904,-0.3904,-0.3916,-0.3916,-0.392,-0.3908,-0.3908,-0.3907,-0.3907,-0.3907,-0.3907,-0.37,-0.3718,-0.3727,-0.3754,-0.3768,-0.3789,-0.3827,-0.3841,-0.3864,-0.3883,-0.3883,-0.3907,-0.3934,-0.394,-0.3906,-0.3906,-0.3906,-0.3906,-0.3907,-0.3668,-0.3679,-0.3692,-0.3705,-0.374,-0.3754,-0.3787,-0.3814,-0.383,-0.3837,-0.3861,-0.3876,-0.3889,-0.3892,-0.3897,-0.3855,-0.3855,-0.3855,-0.3855,-0.3642,-0.365,-0.3669,-0.3688,-0.371,-0.374,-0.3755,-0.3784,-0.3817,-0.3829,-0.3839,-0.3848,-0.385,-0.3862,-0.3866,-0.3871,-0.3822,-0.3822,-0.3822,-0.3624,-0.3636,-0.3642,-0.3672,-0.3701,-0.3725,-0.374,-0.3762,-0.3801,-0.3822,-0.3838,-0.384,-0.3855,-0.3859,-0.388,-0.3885,-0.3896,0,0]},{"header":{"parameterUnit":"m.s-1","parameterCategory":1,"la1":30.2992,"la2":30.254,"lo1":-89.0895,"lo2":-89.0443,"dy":0.0025,"dx":0.0025,"nx":19,"ny":19,"refTime":"2026-03-13T21:00:00:Z","depth":0,"parameterNumber":3,"parameterNumberName":"V-component_of_WINDS"},"data":[0,0,0,0.1969,0.197,0.1999,0.1999,0.205,0.2051,0,0,0,0,0,0,0,0,0,0,0,0.1967,0.1967,0.1969,0.197,0.1999,0.1999,0.205,0.2051,0,0,0,0,0,0,0,0,0,0,0,0.1966,0.1967,0.1968,0.197,0.1999,0.1999,0.205,0.2024,0,0,0,0,0,0,0,0,0,0,0.1993,0.1996,0.1967,0.1968,0.197,0.1999,0.1999,0.2022,0.2025,0.2042,0,0.2056,0,0.2054,0.2055,0.2055,0,0,0,0.1966,0.1993,0.1996,0.1968,0.1971,0.1999,0.1985,0.2024,0.2027,0.2046,0.2057,0.2059,0.2055,0.2055,0.2055,0.216,0.2161,0,0,0.1965,0.1975,0.1993,0.1998,0.1992,0.1984,0.1986,0.2026,0.2039,0.2057,0.206,0.2056,0.2055,0.2056,0.216,0.2161,0,0,0,0.1963,0.1975,0.1976,0.1996,0.2,0.1985,0.1987,0.2037,0.2037,0.206,0.2057,0.2056,0.2057,0.2159,0.216,0.2203,0,0,0,0.1962,0.1973,0.1975,0.1982,0.2,0.2019,0.1998,0.2034,0.2038,0.2056,0.2056,0.2057,0.2158,0.216,0.2201,0.2223,0,0,0,0.1963,0.1973,0.1979,0.1983,0.1995,0.2018,0.2019,0.2034,0.2036,0.2055,0.2057,0.2158,0.2159,0.2198,0.2218,0.2254,0,0,0,0.1968,0.2018,0.198,0.2035,0.1995,0.2044,0.2019,0.2055,0.2076,0.2056,0.2158,0.216,0.2197,0.2216,0.2252,0.2287,0.2302,0,0,0.2037,0.2027,0.2058,0.2025,0.2083,0.2038,0.2104,0.2114,0.2106,0.2144,0.2146,0.2202,0.2218,0.2254,0.2382,0.2394,0,0,0,0.2084,0.2107,0.212,0.214,0.2148,0.2157,0.2156,0.216,0.2191,0.2127,0.2223,0.2233,0.2253,0.227,0.228,0.2298,0.2168,0.2167,0.2167,0.2199,0.2185,0.2237,0.2228,0.2248,0.2247,0.2263,0.2268,0.225,0.2273,0.2284,0.2363,0.2383,0.239,0.2409,0.2301,0.2301,0.2301,0.2301,0.23,0.2331,0.2305,0.2346,0.2333,0.2369,0.237,0.2356,0.2388,0.2354,0.2371,0.2335,0.2404,0.242,0.2304,0.2304,0.2303,0.2303,0.2303,0.2374,0.2387,0.239,0.2418,0.2442,0.2432,0.2464,0.2451,0.244,0.2457,0.2468,0.2467,0.2466,0.2463,0.2463,0.2463,0.2464,0.2464,0.2464,0.2451,0.2453,0.248,0.2493,0.2505,0.2519,0.2519,0.2531,0.2541,0.253,0.253,0.2511,0.2413,0.2389,0.2468,0.2467,0.2467,0.2466,0.2466,0.256,0.2533,0.2576,0.2588,0.2603,0.2628,0.2611,0.2637,0.2645,0.2662,0.2639,0.2569,0.2558,0.2549,0.253,0.2641,0.2641,0.2641,0.2641,0.2624,0.2616,0.2657,0.2677,0.2695,0.2684,0.2736,0.2737,0.2735,0.2739,0.2721,0.2694,0.2686,0.268,0.2669,0.265,0.279,0.279,0.279,0.2691,0.2685,0.273,0.2725,0.2736,0.2747,0.2795,0.2821,0.2813,0.2796,0.2743,0.2737,0.2693,0.2679,0.2661,0.2644,0.261,0,0]}]]